• In Netherlands
  • List of Countries
  • For 7 days
  • Water Temperature
  • Satellite Maps
  • Weather Map
  • Weather Widgets
  • user-avatar
    Login

    Hourly Weather Sharan

    Today, 21 February, Wednesday

    Time Temperature Precipitation Wind Pressure Humidity
    00:00 +5°C° 0 mm 2 mps 584 mmHg 72%
    01:00 +5°C° 0 mm 2 mps 584 mmHg 73%
    02:00 +5°C° 0 mm 2 mps 583 mmHg 73%
    03:00 +5°C° 0 mm 2 mps 583 mmHg 73%
    04:00 +4°C° 0 mm 2 mps 583 mmHg 73%
    05:00 +4°C° 0 mm 2 mps 583 mmHg 73%
    06:00 +4°C° 0 mm 2 mps 584 mmHg 73%
    07:00 +5°C° 0 mm 1 mps 584 mmHg 72%
    08:00 +5°C° 0 mm 1 mps 584 mmHg 71%
    09:00 +5°C° 0 mm 2 mps 585 mmHg 62%
    10:00 +6°C° 0 mm 2 mps 585 mmHg 54%
    11:00 +8°C° 0 mm 3 mps 586 mmHg 46%
    12:00 +8°C° 0 mm 3 mps 586 mmHg 42%
    13:00 +9°C° 0 mm 3 mps 586 mmHg 39%
    14:00 +10°C° 0 mm 3 mps 586 mmHg 35%
    15:00 +9°C° 0 mm 3 mps 585 mmHg 35%
    16:00 +9°C° 0 mm 3 mps 585 mmHg 34%
    17:00 +9°C° 0 mm 2 mps 585 mmHg 34%
    18:00 +8°C° 0 mm 2 mps 585 mmHg 38%
    19:00 +8°C° 0 mm 1 mps 585 mmHg 42%
    20:00 +7°C° 0 mm 1 mps 585 mmHg 46%
    21:00 +7°C° 0 mm 1 mps 585 mmHg 47%
    22:00 +6°C° 0 mm 1 mps 585 mmHg 48%
    23:00 +6°C° 0 mm 1 mps 585 mmHg 49%

    Tomorrow, 22 February, Thursday

    Time Temperature Precipitation Wind Pressure Humidity
    00:00 +5°C° 0 mm 1 mps 585 mmHg 49%
    01:00 +5°C° 0 mm 1 mps 584 mmHg 49%
    02:00 +5°C° 0 mm 1 mps 584 mmHg 49%
    03:00 +4°C° 0 mm 1 mps 584 mmHg 50%
    04:00 +4°C° 0 mm 1 mps 583 mmHg 50%
    05:00 +4°C° 0 mm 1 mps 583 mmHg 51%
    06:00 +4°C° 0 mm 1 mps 583 mmHg 50%
    07:00 +4°C° 0 mm 1 mps 584 mmHg 50%
    08:00 +5°C° 0 mm 1 mps 584 mmHg 49%
    09:00 +6°C° 0 mm 1 mps 584 mmHg 44%
    10:00 +7°C° 0 mm 1 mps 585 mmHg 40%
    11:00 +8°C° 0 mm 1 mps 585 mmHg 35%
    12:00 +8°C° 0 mm 2 mps 585 mmHg 32%
    13:00 +9°C° 0 mm 2 mps 585 mmHg 29%
    14:00 +10°C° 0 mm 3 mps 585 mmHg 27%
    15:00 +10°C° 0 mm 3 mps 585 mmHg 26%
    16:00 +10°C° 0 mm 3 mps 584 mmHg 26%
    17:00 +10°C° 0 mm 2 mps 584 mmHg 26%
    18:00 +9°C° 0 mm 2 mps 584 mmHg 29%
    19:00 +8°C° 0 mm 2 mps 585 mmHg 32%
    20:00 +8°C° 0 mm 1 mps 585 mmHg 35%
    21:00 +8°C° 0 mm 1 mps 585 mmHg 37%
    22:00 +7°C° 0 mm 1 mps 585 mmHg 38%
    23:00 +7°C° 0 mm 1 mps 584 mmHg 40%

    Day after tomorrow, 23 February, Friday

    Time Temperature Precipitation Wind Pressure Humidity
    00:00 +6°C° 0 mm 1 mps 584 mmHg 42%
    01:00 +6°C° 0 mm 1 mps 584 mmHg 43%
    02:00 +5°C° 0 mm 1 mps 584 mmHg 45%
    03:00 +5°C° 0 mm 1 mps 584 mmHg 46%
    04:00 +4°C° 0 mm 1 mps 583 mmHg 47%
    05:00 +4°C° 0 mm 1 mps 583 mmHg 48%
    06:00 +4°C° 0 mm 1 mps 583 mmHg 48%
    07:00 +5°C° 0 mm 1 mps 584 mmHg 47%
    08:00 +5°C° 0 mm 1 mps 585 mmHg 46%
    09:00 +7°C° 0 mm 1 mps 585 mmHg 42%
    10:00 +8°C° 0 mm 1 mps 586 mmHg 38%
    11:00 +9°C° 0 mm 2 mps 587 mmHg 34%
    12:00 +9°C° 0 mm 2 mps 587 mmHg 33%
    13:00 +10°C° 0 mm 2 mps 586 mmHg 32%
    14:00 +12°C° 0 mm 2 mps 586 mmHg 31%
    15:00 +12°C° 0 mm 2 mps 586 mmHg 32%
    16:00 +12°C° 0 mm 2 mps 586 mmHg 33%
    17:00 +11°C° 0 mm 3 mps 585 mmHg 34%
    18:00 +10°C° 0.4 mm 3 mps 585 mmHg 40%
    19:00 +8°C° 0.4 mm 4 mps 585 mmHg 45%
    20:00 +7°C° 0.4 mm 4 mps 585 mmHg 51%
    21:00 +6°C° 1.6 mm 4 mps 585 mmHg 56%
    22:00 +5°C° 1.6 mm 4 mps 585 mmHg 61%
    23:00 +5°C° 1.6 mm 4 mps 585 mmHg 66%

    24 February, Saturday

    Time Temperature Precipitation Wind Pressure Humidity
    00:00 +4°C° 2.1 mm 4 mps 585 mmHg 73%
    01:00 +3°C° 2.1 mm 4 mps 584 mmHg 80%
    02:00 +1°C° 2.1 mm 4 mps 584 mmHg 88%
    03:00 +1°C° 0.9 mm 4 mps 583 mmHg 88%
    04:00 +1°C° 0.9 mm 4 mps 583 mmHg 89%
    05:00 +1°C° 0.9 mm 4 mps 583 mmHg 90%
    06:00 +1°C° 1.2 mm 4 mps 583 mmHg 91%
    07:00 +2°C° 1.2 mm 3 mps 584 mmHg 92%
    08:00 +2°C° 1.2 mm 3 mps 584 mmHg 92%
    09:00 +2°C° 0.3 mm 3 mps 585 mmHg 92%
    10:00 +4°C° 0.3 mm 2 mps 585 mmHg 91%
    11:00 +4°C° 0.3 mm 2 mps 585 mmHg 91%
    12:00 +5°C° 0.1 mm 2 mps 585 mmHg 89%
    13:00 +6°C° 0.1 mm 2 mps 585 mmHg 86%
    14:00 +6°C° 0.1 mm 2 mps 585 mmHg 84%
    15:00 +6°C° 0.1 mm 2 mps 585 mmHg 83%
    16:00 +6°C° 0.1 mm 2 mps 585 mmHg 82%
    17:00 +6°C° 0.1 mm 2 mps 585 mmHg 81%
    18:00 +6°C° 0.2 mm 2 mps 585 mmHg 83%
    19:00 +5°C° 0.2 mm 2 mps 586 mmHg 84%
    20:00 +5°C° 0.2 mm 2 mps 586 mmHg 85%
    21:00 +5°C° 0.2 mm 2 mps 586 mmHg 86%
    22:00 +4°C° 0.2 mm 2 mps 586 mmHg 88%
    23:00 +4°C° 0.2 mm 2 mps 587 mmHg 89%

    25 February, Sunday

    Time Temperature Precipitation Wind Pressure Humidity
    00:00 +4°C° 0.1 mm 2 mps 586 mmHg 90%
    01:00 +4°C° 0.1 mm 2 mps 586 mmHg 90%
    02:00 +4°C° 0.1 mm 2 mps 586 mmHg 90%
    03:00 +4°C° 0.1 mm 2 mps 586 mmHg 90%
    04:00 +4°C° 0.1 mm 2 mps 586 mmHg 90%
    05:00 +4°C° 0.1 mm 2 mps 586 mmHg 90%
    06:00 +4°C° 0.1 mm 2 mps 586 mmHg 90%
    07:00 +4°C° 0.1 mm 2 mps 586 mmHg 89%
    08:00 +4°C° 0.1 mm 2 mps 587 mmHg 89%
    09:00 +4°C° 0.6 mm 2 mps 587 mmHg 88%
    10:00 +4°C° 0.6 mm 2 mps 587 mmHg 88%
    11:00 +5°C° 0.6 mm 2 mps 588 mmHg 87%
    12:00 +4°C° 1.1 mm 3 mps 587 mmHg 87%
    13:00 +4°C° 1.1 mm 3 mps 587 mmHg 87%
    14:00 +4°C° 1.1 mm 3 mps 587 mmHg 87%
    15:00 +4°C° 0.2 mm 3 mps 587 mmHg 86%
    16:00 +5°C° 0.2 mm 2 mps 587 mmHg 85%
    17:00 +5°C° 0.2 mm 2 mps 587 mmHg 84%
    18:00 +5°C° 0 mm 2 mps 587 mmHg 84%
    19:00 +4°C° 0 mm 2 mps 587 mmHg 84%
    20:00 +4°C° 0 mm 2 mps 587 mmHg 84%
    21:00 +4°C° 0 mm 2 mps 587 mmHg 83%
    22:00 +4°C° 0 mm 2 mps 587 mmHg 83%
    23:00 +3°C° 0 mm 2 mps 587 mmHg 83%

    26 February, Monday

    Time Temperature Precipitation Wind Pressure Humidity
    00:00 +3°C° 0 mm 2 mps 587 mmHg 82%
    01:00 +3°C° 0 mm 2 mps 587 mmHg 82%
    02:00 +4°C° 0 mm 1 mps 586 mmHg 81%
    03:00 +3°C° 0 mm 2 mps 586 mmHg 80%
    04:00 +3°C° 0 mm 2 mps 586 mmHg 80%
    05:00 +3°C° 0 mm 2 mps 586 mmHg 79%
    06:00 +3°C° 0 mm 2 mps 586 mmHg 78%
    07:00 +3°C° 0 mm 2 mps 586 mmHg 78%
    08:00 +4°C° 0 mm 2 mps 587 mmHg 78%
    09:00 +5°C° 0.3 mm 2 mps 587 mmHg 78%
    10:00 +5°C° 0.3 mm 2 mps 587 mmHg 78%
    11:00 +6°C° 0.3 mm 2 mps 588 mmHg 78%
    12:00 +8°C° 0.3 mm 1 mps 587 mmHg 78%
    13:00 +8°C° 0.3 mm 1 mps 587 mmHg 78%
    14:00 +7°C° 0.3 mm 0 mps 586 mmHg 78%
    15:00 +8°C° 0.2 mm 1 mps 586 mmHg 78%
    16:00 +8°C° 0.2 mm 1 mps 586 mmHg 78%
    17:00 +8°C° 0.2 mm 2 mps 586 mmHg 78%
    18:00 +8°C° 0.6 mm 1 mps 586 mmHg 81%
    19:00 +8°C° 0.6 mm 1 mps 586 mmHg 83%
    20:00 +6°C° 0.6 mm 0 mps 586 mmHg 86%
    21:00 +7°C° 0.7 mm 1 mps 586 mmHg 87%
    22:00 +7°C° 0.7 mm 1 mps 586 mmHg 88%
    23:00 +7°C° 0.7 mm 1 mps 586 mmHg 89%
    Show more